Time,TemperatureF,DewpointF,PressureIn,WindDirection,WindDirectionDegrees,WindSpeedMPH,WindSpeedGustMPH,Humidity,HourlyPrecipIn,Conditions,Clouds,dailyrainin,SoftwareType,DateUTC
2013-03-11 00:00:00,36.7,35.1,30.37,SSE,158,0.0,1.0,94,0.00,,,0.00,meteohub,2013-03-11 04:00:00,
2013-03-11 00:05:00,36.9,35.2,30.37,SSE,153,0.0,1.0,94,0.00,,,0.00,meteohub,2013-03-11 04:05:00,
2013-03-11 00:10:00,37.0,35.4,30.37,SSE,147,0.0,1.0,94,0.00,,,0.00,meteohub,2013-03-11 04:10:00,
2013-03-11 00:15:00,37.2,35.4,30.37,SSW,212,0.0,3.0,93,0.00,,,0.00,meteohub,2013-03-11 04:15:00,
2013-03-11 00:20:00,37.4,35.6,30.37,SSW,210,2.0,3.0,93,0.00,,,0.00,meteohub,2013-03-11 04:20:00,
2013-03-11 00:25:00,37.6,35.8,30.37,South,181,0.0,4.0,93,0.00,,,0.00,meteohub,2013-03-11 04:25:00,
2013-03-11 00:30:00,37.8,35.6,30.37,SSW,198,1.0,4.0,92,0.00,,,0.00,meteohub,2013-03-11 04:30:00,
2013-03-11 00:35:00,37.8,35.6,30.38,SSE,163,0.0,4.0,92,0.00,,,0.00,meteohub,2013-03-11 04:35:00,
2013-03-11 00:40:00,37.8,35.6,30.38,SW,228,3.0,4.0,92,0.00,,,0.00,meteohub,2013-03-11 04:40:00,
2013-03-11 00:45:00,37.9,35.8,30.38,SW,222,0.0,4.0,92,0.00,,,0.00,meteohub,2013-03-11 04:45:00,
2013-03-11 00:51:00,37.9,35.6,30.38,SW,224,0.0,4.0,91,0.00,,,0.00,meteohub,2013-03-11 04:51:00,
2013-03-11 00:55:00,37.9,35.6,30.38,SW,224,0.0,4.0,91,0.00,,,0.00,meteohub,2013-03-11 04:55:00,
2013-03-11 01:01:00,37.9,35.6,30.38,SSW,193,0.0,2.0,91,0.00,,,0.00,meteohub,2013-03-11 05:01:00,
2013-03-11 01:06:00,37.8,35.4,30.37,SE,146,1.0,2.0,91,0.00,,,0.00,meteohub,2013-03-11 05:06:00,
2013-03-11 01:11:00,37.8,35.4,30.37,ESE,117,0.0,3.0,91,0.00,,,0.00,meteohub,2013-03-11 05:11:00,
2013-03-11 01:16:00,37.6,35.2,30.37,SSE,158,0.0,3.0,91,0.00,,,0.00,meteohub,2013-03-11 05:16:00,
2013-03-11 01:21:00,37.4,35.1,30.36,ESE,108,0.0,2.0,91,0.00,,,0.00,meteohub,2013-03-11 05:21:00,
2013-03-11 01:26:00,37.2,35.1,30.36,SSE,157,0.0,3.0,92,0.00,,,0.00,meteohub,2013-03-11 05:26:00,
2013-03-11 01:31:00,37.2,35.1,30.37,South,191,0.0,3.0,92,0.00,,,0.00,meteohub,2013-03-11 05:31:00,
2013-03-11 01:36:00,37.4,35.2,30.37,SSW,198,0.0,3.0,92,0.00,,,0.00,meteohub,2013-03-11 05:36:00,
2013-03-11 01:41:00,37.6,35.4,30.37,SSE,167,0.0,3.0,92,0.00,,,0.00,meteohub,2013-03-11 05:41:00,
2013-03-11 01:46:00,37.6,35.4,30.37,SSE,155,0.0,2.0,92,0.00,,,0.00,meteohub,2013-03-11 05:46:00,
2013-03-11 01:51:00,37.6,35.4,30.36,South,183,2.0,2.0,92,0.00,,,0.00,meteohub,2013-03-11 05:51:00,
2013-03-11 01:57:00,37.6,35.4,30.36,SSE,162,0.0,2.0,92,0.00,,,0.00,meteohub,2013-03-11 05:57:00,
2013-03-11 02:02:00,37.6,35.4,30.37,SSW,195,0.0,2.0,92,0.00,,,0.00,meteohub,2013-03-11 06:02:00,
2013-03-11 02:07:00,37.6,35.4,30.37,SSW,195,0.0,2.0,92,0.00,,,0.00,meteohub,2013-03-11 06:07:00,
2013-03-11 02:12:00,37.6,35.4,30.35,SE,142,1.0,2.0,92,0.00,,,0.00,meteohub,2013-03-11 06:12:00,
2013-03-11 02:17:00,37.6,35.4,30.35,ESE,111,0.0,2.0,92,0.00,,,0.00,meteohub,2013-03-11 06:17:00,
2013-03-11 02:22:00,37.2,35.1,30.35,SE,143,0.0,3.0,92,0.00,,,0.00,meteohub,2013-03-11 06:22:00,
2013-03-11 02:27:00,37.0,34.9,30.35,SE,135,0.0,3.0,92,0.00,,,0.00,meteohub,2013-03-11 06:27:00,
2013-03-11 02:32:00,37.0,35.2,30.35,East,101,0.0,3.0,93,0.00,,,0.00,meteohub,2013-03-11 06:32:00,
2013-03-11 02:37:00,36.9,35.1,30.35,SE,146,0.0,3.0,93,0.00,,,0.00,meteohub,2013-03-11 06:37:00,
2013-03-11 02:42:00,36.9,35.1,30.35,SSE,152,0.0,2.0,93,0.00,,,0.00,meteohub,2013-03-11 06:42:00,
2013-03-11 02:47:00,36.7,34.9,30.35,SSE,152,0.0,1.0,93,0.00,,,0.00,meteohub,2013-03-11 06:47:00,
2013-03-11 02:52:00,36.3,34.5,30.35,SSE,152,0.0,1.0,93,0.00,,,0.00,meteohub,2013-03-11 06:52:00,
2013-03-11 02:57:00,36.3,34.7,30.34,SSE,152,0.0,1.0,94,0.00,,,0.00,meteohub,2013-03-11 06:57:00,
2013-03-11 03:02:00,36.3,34.7,30.34,SSE,152,0.0,1.0,94,0.00,,,0.00,meteohub,2013-03-11 07:02:00,
2013-03-11 03:07:00,36.0,34.3,30.33,SSE,153,0.0,1.0,94,0.00,,,0.00,meteohub,2013-03-11 07:07:00,
2013-03-11 03:12:00,36.0,34.3,30.33,ESE,114,0.0,1.0,94,0.00,,,0.00,meteohub,2013-03-11 07:12:00,
2013-03-11 03:17:00,35.8,34.2,30.33,ESE,113,0.0,2.0,94,0.00,,,0.00,meteohub,2013-03-11 07:17:00,
2013-03-11 03:22:00,35.6,34.0,30.33,ESE,117,0.0,2.0,94,0.00,,,0.00,meteohub,2013-03-11 07:22:00,
2013-03-11 03:27:00,35.8,34.5,30.34,ESE,117,0.0,2.0,95,0.00,,,0.00,meteohub,2013-03-11 07:27:00,
2013-03-11 03:32:00,35.6,34.3,30.33,ESE,117,0.0,2.0,95,0.00,,,0.00,meteohub,2013-03-11 07:32:00,
2013-03-11 03:38:00,35.8,34.5,30.34,ESE,117,0.0,1.0,95,0.00,,,0.00,meteohub,2013-03-11 07:38:00,
2013-03-11 03:43:00,35.8,34.5,30.33,ESE,117,0.0,1.0,95,0.00,,,0.00,meteohub,2013-03-11 07:43:00,
2013-03-11 03:48:00,36.0,34.7,30.33,ESE,117,0.0,1.0,95,0.00,,,0.00,meteohub,2013-03-11 07:48:00,
2013-03-11 03:53:00,35.6,34.3,30.33,ESE,117,0.0,1.0,95,0.00,,,0.00,meteohub,2013-03-11 07:53:00,
2013-03-11 03:58:00,35.4,34.2,30.32,ESE,117,0.0,0.0,95,0.00,,,0.00,meteohub,2013-03-11 07:58:00,
2013-03-11 04:03:00,35.4,34.2,30.33,ESE,117,0.0,0.0,95,0.00,,,0.00,meteohub,2013-03-11 08:03:00,
2013-03-11 04:08:00,35.4,34.2,30.33,ESE,117,0.0,0.0,95,0.00,,,0.00,meteohub,2013-03-11 08:08:00,
2013-03-11 04:13:00,35.6,34.5,30.33,ESE,117,0.0,1.0,96,0.00,,,0.00,meteohub,2013-03-11 08:13:00,
2013-03-11 04:18:00,35.8,34.7,30.33,SE,131,0.0,1.0,96,0.00,,,0.00,meteohub,2013-03-11 08:18:00,
2013-03-11 04:23:00,35.4,34.3,30.33,SE,131,0.0,1.0,96,0.00,,,0.00,meteohub,2013-03-11 08:23:00,
2013-03-11 04:28:00,35.4,34.3,30.33,SE,127,0.0,1.0,96,0.00,,,0.00,meteohub,2013-03-11 08:28:00,
2013-03-11 04:33:00,35.4,34.3,30.32,SE,132,1.0,1.0,96,0.00,,,0.00,meteohub,2013-03-11 08:33:00,
2013-03-11 04:38:00,35.2,34.2,30.32,SE,142,1.0,1.0,96,0.00,,,0.00,meteohub,2013-03-11 08:38:00,
2013-03-11 04:43:00,35.2,34.2,30.32,SE,135,0.0,1.0,96,0.00,,,0.00,meteohub,2013-03-11 08:43:00,
2013-03-11 04:48:00,34.9,33.8,30.31,SE,142,0.0,1.0,96,0.00,,,0.00,meteohub,2013-03-11 08:48:00,
2013-03-11 04:53:00,34.9,33.8,30.31,SE,142,0.0,1.0,96,0.00,,,0.00,meteohub,2013-03-11 08:53:00,
2013-03-11 04:58:00,34.7,33.6,30.31,SE,142,0.0,1.0,96,0.00,,,0.00,meteohub,2013-03-11 08:58:00,
2013-03-11 05:03:00,34.5,33.4,30.31,SE,142,0.0,1.0,96,0.00,,,0.00,meteohub,2013-03-11 09:03:00,
2013-03-11 05:08:00,34.5,33.4,30.32,SE,144,0.0,1.0,96,0.00,,,0.00,meteohub,2013-03-11 09:08:00,
2013-03-11 05:13:00,34.5,33.4,30.32,SE,143,0.0,1.0,96,0.00,,,0.00,meteohub,2013-03-11 09:13:00,
2013-03-11 05:18:00,34.9,33.8,30.32,SSE,148,1.0,1.0,96,0.00,,,0.00,meteohub,2013-03-11 09:18:00,
2013-03-11 05:23:00,34.9,33.8,30.32,SE,134,1.0,1.0,96,0.00,,,0.00,meteohub,2013-03-11 09:23:00,
2013-03-11 05:28:00,35.1,34.0,30.32,SE,134,0.0,1.0,96,0.00,,,0.00,meteohub,2013-03-11 09:28:00,
2013-03-11 05:33:00,35.1,34.3,30.32,SE,132,0.0,1.0,97,0.00,,,0.00,meteohub,2013-03-11 09:33:00,
2013-03-11 05:38:00,34.9,33.8,30.32,SE,133,1.0,1.0,96,0.00,,,0.00,meteohub,2013-03-11 09:38:00,
2013-03-11 05:43:00,34.9,33.8,30.33,ESE,122,0.0,1.0,96,0.00,,,0.00,meteohub,2013-03-11 09:43:00,
2013-03-11 05:48:00,34.9,33.8,30.33,ESE,122,0.0,1.0,96,0.00,,,0.00,meteohub,2013-03-11 09:48:00,
2013-03-11 05:53:00,34.9,33.8,30.33,ESE,123,0.0,1.0,96,0.00,,,0.00,meteohub,2013-03-11 09:53:00,
2013-03-11 05:58:00,34.9,34.2,30.32,ESE,122,1.0,1.0,97,0.00,,,0.00,meteohub,2013-03-11 09:58:00,
2013-03-11 06:03:00,35.1,34.3,30.33,East,101,1.0,1.0,97,0.00,,,0.00,meteohub,2013-03-11 10:03:00,
2013-03-11 06:08:00,35.1,34.3,30.33,SE,127,0.0,2.0,97,0.00,,,0.00,meteohub,2013-03-11 10:08:00,
2013-03-11 06:13:00,35.2,34.5,30.33,ESE,110,0.0,2.0,97,0.00,,,0.00,meteohub,2013-03-11 10:13:00,
2013-03-11 06:18:00,35.2,34.5,30.33,ESE,110,0.0,2.0,97,0.00,,,0.00,meteohub,2013-03-11 10:18:00,
2013-03-11 06:23:00,35.2,34.5,30.33,ESE,117,0.0,2.0,97,0.00,,,0.00,meteohub,2013-03-11 10:23:00,
2013-03-11 06:28:00,34.2,34.2,30.32,ESE,117,0.0,2.0,100,0.00,,,0.00,meteohub,2013-03-11 10:28:00,
2013-03-11 06:33:00,34.2,34.2,30.32,ESE,117,0.0,2.0,100,0.00,,,0.00,meteohub,2013-03-11 10:33:00,
2013-03-11 07:45:00,35.4,34.7,30.31,North,-999,-999.0,-999.0,97,-99.99,,,0.00,meteohub,2013-03-11 11:45:00,
2013-03-11 07:50:00,36.0,35.2,30.31,North,-999,-999.0,-999.0,97,0.00,,,0.00,meteohub,2013-03-11 11:50:00,
2013-03-11 07:55:00,36.1,35.4,30.30,SE,127,3.0,-999.0,97,0.00,,,0.00,meteohub,2013-03-11 11:55:00,
2013-03-11 08:00:00,36.5,35.8,30.31,ESE,111,5.0,5.0,97,0.00,,,0.00,meteohub,2013-03-11 12:00:00,
2013-03-11 08:05:00,37.0,36.3,30.31,ESE,123,2.0,6.0,97,0.00,,,0.00,meteohub,2013-03-11 12:05:00,
2013-03-11 08:10:00,37.6,36.9,30.31,ESE,118,2.0,6.0,97,0.00,,,0.00,meteohub,2013-03-11 12:10:00,
2013-03-11 08:15:00,37.9,37.2,30.31,ESE,111,2.0,6.0,97,0.00,,,0.00,meteohub,2013-03-11 12:15:00,
2013-03-11 08:20:00,38.5,37.4,30.31,ESE,115,3.0,6.0,96,0.00,,,0.00,meteohub,2013-03-11 12:20:00,
2013-03-11 08:25:00,38.8,37.8,30.31,ESE,119,1.0,5.0,96,0.00,,,0.00,meteohub,2013-03-11 12:25:00,
2013-03-11 08:30:00,39.2,37.9,30.31,East,101,4.0,5.0,95,0.00,,,0.00,meteohub,2013-03-11 12:30:00,
2013-03-11 08:35:00,39.7,38.5,30.31,East,101,1.0,5.0,95,0.00,,,0.00,meteohub,2013-03-11 12:35:00,
2013-03-11 08:40:00,39.9,38.3,30.31,SE,135,4.0,6.0,94,0.00,,,0.00,meteohub,2013-03-11 12:40:00,
2013-03-11 08:45:00,40.5,38.8,30.31,SE,146,1.0,7.0,94,0.00,,,0.00,meteohub,2013-03-11 12:45:00,
2013-03-11 08:50:00,40.8,39.0,30.31,ESE,110,4.0,8.0,93,0.00,,,0.00,meteohub,2013-03-11 12:50:00,
2013-03-11 08:55:00,41.2,39.4,30.31,SE,139,5.0,8.0,93,0.00,,,0.00,meteohub,2013-03-11 12:55:00,
2013-03-11 09:00:00,41.5,39.4,30.31,SSE,147,5.0,8.0,92,0.00,,,0.00,meteohub,2013-03-11 13:00:00,
2013-03-11 09:05:00,41.7,39.2,30.31,SE,132,4.0,9.0,91,0.00,,,0.00,meteohub,2013-03-11 13:05:00,
2013-03-11 09:10:00,42.1,39.6,30.32,ESE,122,2.0,9.0,91,0.00,,,0.00,meteohub,2013-03-11 13:10:00,
2013-03-11 09:15:00,42.4,39.9,30.31,SSE,148,2.0,9.0,91,0.00,,,0.00,meteohub,2013-03-11 13:15:00,
2013-03-11 09:20:00,42.8,40.1,30.31,South,172,3.0,8.0,90,0.00,,,0.00,meteohub,2013-03-11 13:20:00,
2013-03-11 09:25:00,43.0,40.3,30.31,SSE,150,2.0,8.0,90,0.00,,,0.00,meteohub,2013-03-11 13:25:00,
2013-03-11 09:30:00,43.3,40.6,30.31,SE,124,0.0,8.0,90,0.00,,,0.00,meteohub,2013-03-11 13:30:00,
2013-03-11 09:35:00,43.5,40.5,30.31,ESE,119,2.0,8.0,89,0.00,,,0.00,meteohub,2013-03-11 13:35:00,
2013-03-11 09:40:00,43.5,40.8,30.31,East,101,3.0,9.0,90,0.00,,,0.00,meteohub,2013-03-11 13:40:00,
2013-03-11 09:45:00,43.9,40.8,30.32,South,176,1.0,9.0,89,0.00,,,0.00,meteohub,2013-03-11 13:45:00,
2013-03-11 09:50:00,44.2,41.2,30.32,ESE,117,6.0,9.0,89,0.00,,,0.00,meteohub,2013-03-11 13:50:00,
2013-03-11 09:55:00,44.2,41.2,30.32,SE,133,2.0,8.0,89,0.00,,,0.00,meteohub,2013-03-11 13:55:00,
2013-03-11 10:00:00,44.4,41.4,30.32,ENE,74,1.0,8.0,89,0.00,,,0.00,meteohub,2013-03-11 14:00:00,
2013-03-11 10:05:00,44.2,41.2,30.32,East,85,1.0,8.0,89,0.00,,,0.00,meteohub,2013-03-11 14:05:00,
2013-03-11 10:10:00,44.6,41.5,30.32,SW,217,3.0,6.0,89,0.00,,,0.00,meteohub,2013-03-11 14:10:00,
2013-03-11 10:15:00,44.6,41.2,30.32,South,176,3.0,7.0,88,0.00,,,0.00,meteohub,2013-03-11 14:15:00,
2013-03-11 10:20:00,44.8,41.4,30.32,SSW,194,0.0,7.0,88,0.00,,,0.00,meteohub,2013-03-11 14:20:00,
2013-03-11 10:25:00,45.0,41.9,30.32,SSE,150,0.0,7.0,89,0.00,,,0.00,meteohub,2013-03-11 14:25:00,
2013-03-11 10:30:00,45.0,41.5,30.32,SSE,150,2.0,8.0,88,0.00,,,0.00,meteohub,2013-03-11 14:30:00,
2013-03-11 10:35:00,45.0,41.5,30.33,SSE,162,3.0,8.0,88,0.00,,,0.00,meteohub,2013-03-11 14:35:00,
2013-03-11 10:40:00,45.1,41.7,30.33,SSE,163,4.0,8.0,88,0.00,,,0.00,meteohub,2013-03-11 14:40:00,
2013-03-11 10:45:00,45.3,41.9,30.33,SSE,162,2.0,6.0,88,0.00,,,0.00,meteohub,2013-03-11 14:45:00,
2013-03-11 10:50:00,45.7,42.3,30.33,ESE,118,1.0,6.0,88,0.00,,,0.00,meteohub,2013-03-11 14:50:00,
2013-03-11 10:55:00,46.2,42.6,30.33,SSE,149,4.0,6.0,87,0.00,,,0.00,meteohub,2013-03-11 14:55:00,
2013-03-11 11:00:00,46.0,42.1,30.33,SE,135,3.0,7.0,86,0.00,,,0.00,meteohub,2013-03-11 15:00:00,
2013-03-11 11:05:00,46.6,43.0,30.32,East,81,1.0,7.0,87,0.00,,,0.00,meteohub,2013-03-11 15:05:00,
2013-03-11 11:10:00,46.9,43.0,30.32,South,173,3.0,7.0,86,0.00,,,0.00,meteohub,2013-03-11 15:10:00,
2013-03-11 11:16:00,46.9,42.6,30.32,SE,140,3.0,5.0,85,0.00,,,0.00,meteohub,2013-03-11 15:16:00,
2013-03-11 11:21:00,46.9,42.6,30.32,SE,139,6.0,6.0,85,0.00,,,0.00,meteohub,2013-03-11 15:21:00,
2013-03-11 11:26:00,47.1,43.2,30.32,SE,146,2.0,7.0,86,0.00,,,0.00,meteohub,2013-03-11 15:26:00,
2013-03-11 11:31:00,47.5,43.2,30.32,ESE,107,1.0,7.0,85,0.00,,,0.00,meteohub,2013-03-11 15:31:00,
2013-03-11 11:36:00,47.8,43.5,30.32,SE,127,3.0,7.0,85,0.00,,,0.00,meteohub,2013-03-11 15:36:00,
2013-03-11 11:41:00,48.2,43.5,30.32,ESE,122,6.0,7.0,84,0.00,,,0.00,meteohub,2013-03-11 15:41:00,
2013-03-11 11:46:00,48.0,43.3,30.32,SW,235,2.0,7.0,84,0.00,,,0.00,meteohub,2013-03-11 15:46:00,
2013-03-11 11:51:00,48.0,43.3,30.32,South,172,1.0,7.0,84,0.00,,,0.00,meteohub,2013-03-11 15:51:00,
2013-03-11 11:57:00,48.4,43.7,30.32,ESE,118,3.0,8.0,84,0.00,,,0.00,meteohub,2013-03-11 15:57:00,
2013-03-11 12:02:00,49.1,44.4,30.31,South,179,4.0,8.0,84,0.00,,,0.00,meteohub,2013-03-11 16:02:00,
2013-03-11 12:07:00,49.5,44.2,30.31,South,176,4.0,8.0,82,0.00,,,0.00,meteohub,2013-03-11 16:07:00,
2013-03-11 12:12:00,49.6,44.8,30.30,ESE,114,3.0,9.0,83,0.00,,,0.00,meteohub,2013-03-11 16:12:00,
2013-03-11 12:17:00,50.7,45.5,30.30,SSE,152,6.0,9.0,82,0.00,,,0.00,meteohub,2013-03-11 16:17:00,
2013-03-11 12:22:00,51.1,45.1,30.30,SE,146,2.0,9.0,80,0.00,,,0.00,meteohub,2013-03-11 16:22:00,
2013-03-11 12:27:00,51.3,45.3,30.30,ESE,118,3.0,9.0,80,0.00,,,0.00,meteohub,2013-03-11 16:27:00,
2013-03-11 12:32:00,51.1,44.8,30.30,South,176,6.0,10.0,79,0.00,,,0.00,meteohub,2013-03-11 16:32:00,
2013-03-11 12:37:00,50.9,45.3,30.29,NW,316,2.0,11.0,81,0.00,,,0.00,meteohub,2013-03-11 16:37:00,
2013-03-11 12:42:00,51.3,45.3,30.29,SSE,161,2.0,11.0,80,0.00,,,0.00,meteohub,2013-03-11 16:42:00,
2013-03-11 12:47:00,51.8,45.9,30.29,South,177,2.0,11.0,80,0.00,,,0.00,meteohub,2013-03-11 16:47:00,
2013-03-11 12:52:00,51.3,44.6,30.29,SE,141,7.0,9.0,78,0.00,,,0.00,meteohub,2013-03-11 16:52:00,
2013-03-11 12:57:00,51.1,45.1,30.29,SSE,147,2.0,12.0,80,0.00,,,0.00,meteohub,2013-03-11 16:57:00,
2013-03-11 13:02:00,51.6,45.7,30.29,WSW,250,2.0,12.0,80,0.00,,,0.00,meteohub,2013-03-11 17:02:00,
2013-03-11 13:07:00,52.5,46.2,30.29,NW,309,0.0,12.0,79,0.00,,,0.00,meteohub,2013-03-11 17:07:00,
2013-03-11 13:12:00,53.2,46.6,30.29,SE,133,1.0,9.0,78,0.00,,,0.00,meteohub,2013-03-11 17:12:00,
2013-03-11 13:17:00,53.4,46.0,30.29,South,188,1.0,9.0,76,0.00,,,0.00,meteohub,2013-03-11 17:17:00,
2013-03-11 13:22:00,53.2,46.2,30.28,SSW,200,2.0,9.0,77,0.00,,,0.00,meteohub,2013-03-11 17:22:00,
2013-03-11 13:27:00,53.1,46.0,30.29,WSW,241,6.0,9.0,77,0.00,,,0.00,meteohub,2013-03-11 17:27:00,
2013-03-11 13:32:00,52.9,45.9,30.28,SSE,163,4.0,10.0,77,0.00,,,0.00,meteohub,2013-03-11 17:32:00,
2013-03-11 13:37:00,52.5,45.9,30.28,SSW,203,4.0,12.0,78,0.00,,,0.00,meteohub,2013-03-11 17:37:00,
2013-03-11 13:42:00,52.5,45.9,30.28,SW,215,6.0,12.0,78,0.00,,,0.00,meteohub,2013-03-11 17:42:00,
2013-03-11 13:47:00,52.3,45.7,30.28,South,169,3.0,12.0,78,0.00,,,0.00,meteohub,2013-03-11 17:47:00,
2013-03-11 13:52:00,52.3,45.7,30.27,South,172,2.0,9.0,78,0.00,,,0.00,meteohub,2013-03-11 17:52:00,
2013-03-11 13:57:00,52.3,46.0,30.27,SSE,163,3.0,9.0,79,0.00,,,0.00,meteohub,2013-03-11 17:57:00,
2013-03-11 14:02:00,52.5,45.9,30.27,South,188,4.0,9.0,78,0.00,,,0.00,meteohub,2013-03-11 18:02:00,
2013-03-11 14:07:00,52.9,46.2,30.27,South,172,5.0,11.0,78,0.00,,,0.00,meteohub,2013-03-11 18:07:00,
2013-03-11 14:12:00,53.4,46.8,30.27,South,176,7.0,11.0,78,0.00,,,0.00,meteohub,2013-03-11 18:12:00,
2013-03-11 14:17:00,53.4,46.0,30.27,South,186,4.0,11.0,76,0.00,,,0.00,meteohub,2013-03-11 18:17:00,
2013-03-11 14:22:00,53.6,46.2,30.27,SW,225,1.0,9.0,76,0.00,,,0.00,meteohub,2013-03-11 18:22:00,
2013-03-11 14:27:00,53.1,45.7,30.27,SE,143,5.0,8.0,76,0.00,,,0.00,meteohub,2013-03-11 18:27:00,
2013-03-11 14:32:00,52.9,45.9,30.27,SSW,211,3.0,10.0,77,0.00,,,0.00,meteohub,2013-03-11 18:32:00,
2013-03-11 14:37:00,52.5,45.9,30.26,SE,132,3.0,11.0,78,0.00,,,0.00,meteohub,2013-03-11 18:37:00,
2013-03-11 14:42:00,52.5,45.9,30.27,SSW,194,3.0,11.0,78,0.00,,,0.00,meteohub,2013-03-11 18:42:00,
2013-03-11 14:48:00,52.2,45.5,30.26,SSE,160,2.0,11.0,78,0.00,,,0.00,meteohub,2013-03-11 18:48:00,
2013-03-11 14:53:00,52.2,45.5,30.26,SSE,159,6.0,10.0,78,0.00,,,0.00,meteohub,2013-03-11 18:53:00,
2013-03-11 14:58:00,52.0,45.3,30.26,South,173,5.0,13.0,78,0.00,,,0.00,meteohub,2013-03-11 18:58:00,
2013-03-11 15:03:00,52.0,45.7,30.26,SSW,195,2.0,13.0,79,0.00,,,0.00,meteohub,2013-03-11 19:03:00,
2013-03-11 15:08:00,52.2,45.9,30.25,SE,131,1.0,13.0,79,0.00,,,0.00,meteohub,2013-03-11 19:08:00,
2013-03-11 15:13:00,52.0,45.3,30.26,SSE,159,3.0,12.0,78,0.00,,,0.00,meteohub,2013-03-11 19:13:00,
2013-03-11 15:18:00,51.8,45.5,30.26,SSE,165,3.0,11.0,79,0.00,,,0.00,meteohub,2013-03-11 19:18:00,
2013-03-11 15:23:00,51.6,45.3,30.26,SSE,163,1.0,11.0,79,0.00,,,0.00,meteohub,2013-03-11 19:23:00,
2013-03-11 15:28:00,51.8,45.5,30.26,SSW,211,3.0,10.0,79,0.00,,,0.00,meteohub,2013-03-11 19:28:00,
2013-03-11 15:33:00,52.2,45.9,30.26,ESE,108,0.0,8.0,79,0.00,,,0.00,meteohub,2013-03-11 19:33:00,
2013-03-11 15:38:00,52.3,45.7,30.25,SSW,198,1.0,8.0,78,0.00,,,0.00,meteohub,2013-03-11 19:38:00,
2013-03-11 15:43:00,52.2,45.5,30.25,SE,141,2.0,8.0,78,0.00,,,0.00,meteohub,2013-03-11 19:43:00,
2013-03-11 15:48:00,51.8,45.1,30.25,SE,134,3.0,8.0,78,0.00,,,0.00,meteohub,2013-03-11 19:48:00,
2013-03-11 15:53:00,51.4,45.1,30.25,SSE,154,2.0,8.0,79,0.00,,,0.00,meteohub,2013-03-11 19:53:00,
2013-03-11 15:58:00,51.4,45.5,30.25,SE,131,0.0,8.0,80,0.00,,,0.00,meteohub,2013-03-11 19:58:00,
2013-03-11 16:03:00,51.6,45.3,30.25,SSE,165,3.0,8.0,79,0.00,,,0.00,meteohub,2013-03-11 20:03:00,
2013-03-11 16:08:00,51.8,45.5,30.25,SSE,164,3.0,7.0,79,0.00,,,0.00,meteohub,2013-03-11 20:08:00,
2013-03-11 16:13:00,51.8,45.5,30.25,ESE,119,3.0,7.0,79,0.00,,,0.00,meteohub,2013-03-11 20:13:00,
2013-03-11 16:18:00,51.4,45.1,30.25,SSW,200,4.0,7.0,79,0.00,,,0.00,meteohub,2013-03-11 20:18:00,
2013-03-11 16:23:00,51.3,45.3,30.25,SSE,163,3.0,8.0,80,0.00,,,0.00,meteohub,2013-03-11 20:23:00,
2013-03-11 16:28:00,51.1,45.1,30.25,ESE,120,4.0,8.0,80,0.00,,,0.00,meteohub,2013-03-11 20:28:00,
2013-03-11 16:33:00,50.5,44.6,30.24,SSE,149,3.0,8.0,80,0.00,,,0.00,meteohub,2013-03-11 20:33:00,
2013-03-11 16:38:00,50.2,44.6,30.24,South,174,1.0,11.0,81,0.00,,,0.00,meteohub,2013-03-11 20:38:00,
2013-03-11 16:43:00,50.2,44.6,30.24,SSE,149,4.0,11.0,81,0.00,,,0.00,meteohub,2013-03-11 20:43:00,
2013-03-11 16:48:00,50.0,44.8,30.24,South,183,6.0,11.0,82,0.00,,,0.00,meteohub,2013-03-11 20:48:00,
2013-03-11 16:53:00,50.0,44.8,30.24,SSE,163,3.0,10.0,82,0.00,,,0.00,meteohub,2013-03-11 20:53:00,
2013-03-11 16:58:00,49.6,44.4,30.23,ESE,113,3.0,9.0,82,0.00,,,0.00,meteohub,2013-03-11 20:58:00,
2013-03-11 17:03:00,49.5,44.6,30.23,WSW,245,1.0,9.0,83,0.00,,,0.00,meteohub,2013-03-11 21:03:00,
2013-03-11 17:08:00,49.3,44.4,30.23,SSE,149,2.0,9.0,83,0.00,,,0.00,meteohub,2013-03-11 21:08:00,
2013-03-11 17:13:00,49.1,44.4,30.23,SW,227,5.0,8.0,84,0.00,,,0.00,meteohub,2013-03-11 21:13:00,
2013-03-11 17:18:00,49.1,44.4,30.23,East,90,4.0,8.0,84,0.00,,,0.00,meteohub,2013-03-11 21:18:00,
2013-03-11 17:23:00,48.7,44.1,30.23,South,177,3.0,8.0,84,0.00,,,0.00,meteohub,2013-03-11 21:23:00,
2013-03-11 17:28:00,48.7,44.4,30.23,ESE,115,3.0,9.0,85,0.00,,,0.00,meteohub,2013-03-11 21:28:00,
2013-03-11 17:33:00,48.4,44.1,30.22,ESE,121,1.0,9.0,85,0.00,,,0.00,meteohub,2013-03-11 21:33:00,
2013-03-11 17:38:00,48.2,44.2,30.23,SE,141,1.0,9.0,86,0.00,,,0.00,meteohub,2013-03-11 21:38:00,
2013-03-11 17:43:00,48.0,44.1,30.23,South,186,0.0,6.0,86,0.00,,,0.00,meteohub,2013-03-11 21:43:00,
2013-03-11 17:48:00,47.7,44.1,30.23,SSE,147,2.0,6.0,87,0.00,,,0.00,meteohub,2013-03-11 21:48:00,
2013-03-11 17:53:00,47.5,43.9,30.23,ESE,117,1.0,6.0,87,0.00,,,0.00,meteohub,2013-03-11 21:53:00,
2013-03-11 17:58:00,47.5,43.9,30.22,SE,125,2.0,6.0,87,0.00,,,0.00,meteohub,2013-03-11 21:58:00,
2013-03-11 18:03:00,47.3,43.9,30.23,SSE,147,5.0,6.0,88,0.00,,,0.00,meteohub,2013-03-11 22:03:00,
2013-03-11 18:08:00,47.1,43.7,30.22,SE,125,0.0,6.0,88,0.00,,,0.00,meteohub,2013-03-11 22:08:00,
2013-03-11 18:13:00,46.9,43.5,30.22,SSE,154,2.0,7.0,88,0.00,,,0.00,meteohub,2013-03-11 22:13:00,
2013-03-11 18:18:00,46.9,43.5,30.22,SSE,162,0.0,8.0,88,0.00,,,0.00,meteohub,2013-03-11 22:18:00,
2013-03-11 18:23:00,46.8,43.7,30.22,SSE,153,4.0,9.0,89,0.00,,,0.00,meteohub,2013-03-11 22:23:00,
2013-03-11 18:28:00,46.8,43.7,30.22,South,177,3.0,9.0,89,0.00,,,0.00,meteohub,2013-03-11 22:28:00,
2013-03-11 18:33:00,46.8,43.7,30.22,SSE,151,4.0,10.0,89,0.00,,,0.00,meteohub,2013-03-11 22:33:00,
2013-03-11 18:39:00,46.8,43.7,30.22,ESE,105,2.0,10.0,89,0.00,,,0.00,meteohub,2013-03-11 22:39:00,
2013-03-11 18:44:00,46.9,43.9,30.22,ESE,115,2.0,10.0,89,0.00,,,0.00,meteohub,2013-03-11 22:44:00,
2013-03-11 18:49:00,46.8,43.7,30.22,SSE,148,4.0,10.0,89,0.00,,,0.00,meteohub,2013-03-11 22:49:00,
2013-03-11 18:54:00,46.8,43.7,30.22,SE,135,5.0,10.0,89,0.00,,,0.00,meteohub,2013-03-11 22:54:00,
2013-03-11 18:59:00,46.8,44.1,30.22,SSE,165,1.0,10.0,90,0.00,,,0.00,meteohub,2013-03-11 22:59:00,
2013-03-11 19:04:00,46.8,44.1,30.21,SE,145,1.0,9.0,90,0.00,,,0.00,meteohub,2013-03-11 23:04:00,
2013-03-11 19:09:00,46.6,43.9,30.21,SSE,161,1.0,9.0,90,0.00,,,0.00,meteohub,2013-03-11 23:09:00,
2013-03-11 19:14:00,46.6,43.9,30.21,South,176,3.0,9.0,90,0.00,,,0.00,meteohub,2013-03-11 23:14:00,
2013-03-11 19:19:00,46.6,43.9,30.21,ESE,118,5.0,10.0,90,0.00,,,0.00,meteohub,2013-03-11 23:19:00,
2013-03-11 19:24:00,46.2,43.5,30.21,SE,139,2.0,10.0,90,0.00,,,0.00,meteohub,2013-03-11 23:24:00,
2013-03-11 19:29:00,46.0,43.5,30.21,SE,141,4.0,7.0,91,0.00,,,0.00,meteohub,2013-03-11 23:29:00,
2013-03-11 19:34:00,45.9,43.3,30.21,SSE,156,2.0,7.0,91,0.00,,,0.00,meteohub,2013-03-11 23:34:00,
2013-03-11 19:39:00,45.7,43.2,30.21,SE,146,3.0,7.0,91,0.00,,,0.00,meteohub,2013-03-11 23:39:00,
2013-03-11 19:44:00,45.7,43.5,30.21,ESE,120,3.0,7.0,92,0.00,,,0.00,meteohub,2013-03-11 23:44:00,
2013-03-11 19:49:00,45.5,43.3,30.20,ESE,122,1.0,7.0,92,0.00,,,0.00,meteohub,2013-03-11 23:49:00,
2013-03-11 19:54:00,45.3,43.2,30.20,SE,142,1.0,7.0,92,0.00,,,0.00,meteohub,2013-03-11 23:54:00,
2013-03-11 19:59:00,45.1,43.0,30.21,SSE,162,3.0,6.0,92,0.00,,,0.00,meteohub,2013-03-11 23:59:00,
2013-03-11 20:04:00,45.1,43.2,30.21,SSE,159,0.0,6.0,93,0.00,,,0.00,meteohub,2013-03-12 00:04:00,
2013-03-11 20:09:00,45.1,43.2,30.21,SE,141,6.0,8.0,93,0.00,,,0.00,meteohub,2013-03-12 00:09:00,
2013-03-11 20:14:00,45.3,43.3,30.21,ESE,121,1.0,8.0,93,0.00,,,0.00,meteohub,2013-03-12 00:14:00,
2013-03-11 20:19:00,45.3,43.3,30.21,ESE,108,0.0,8.0,93,0.00,,,0.00,meteohub,2013-03-12 00:19:00,
2013-03-11 20:24:00,45.3,43.3,30.21,East,89,1.0,8.0,93,0.00,,,0.00,meteohub,2013-03-12 00:24:00,
2013-03-11 20:29:00,45.3,43.3,30.20,ESE,110,4.0,8.0,93,0.00,,,0.00,meteohub,2013-03-12 00:29:00,
2013-03-11 20:34:00,45.3,43.3,30.21,SE,146,4.0,6.0,93,0.00,,,0.00,meteohub,2013-03-12 00:34:00,
2013-03-11 20:39:00,45.3,43.7,30.21,SSE,156,4.0,9.0,94,0.00,,,0.00,meteohub,2013-03-12 00:39:00,
2013-03-11 20:44:00,45.1,43.5,30.21,SSW,197,4.0,9.0,94,0.00,,,0.00,meteohub,2013-03-12 00:44:00,
2013-03-11 20:49:00,45.3,43.7,30.21,SE,133,1.0,9.0,94,0.00,,,0.00,meteohub,2013-03-12 00:49:00,
2013-03-11 20:54:00,45.1,43.5,30.21,SSE,150,2.0,8.0,94,0.00,,,0.00,meteohub,2013-03-12 00:54:00,
2013-03-11 20:59:00,45.1,43.5,30.21,ESE,120,3.0,7.0,94,0.00,,,0.00,meteohub,2013-03-12 00:59:00,
2013-03-11 21:04:00,45.0,43.3,30.21,SE,133,1.0,7.0,94,0.00,,,0.00,meteohub,2013-03-12 01:04:00,
2013-03-11 21:09:00,45.0,43.3,30.20,SE,128,0.0,7.0,94,0.00,,,0.00,meteohub,2013-03-12 01:09:00,
2013-03-11 21:14:00,44.8,43.2,30.20,SE,146,2.0,7.0,94,0.00,,,0.00,meteohub,2013-03-12 01:14:00,
2013-03-11 21:19:00,44.8,43.2,30.20,East,89,0.0,6.0,94,0.00,,,0.00,meteohub,2013-03-12 01:19:00,
2013-03-11 21:24:00,44.6,43.0,30.20,SSE,168,1.0,6.0,94,0.00,,,0.00,meteohub,2013-03-12 01:24:00,
2013-03-11 21:29:00,44.4,43.2,30.20,ESE,111,2.0,6.0,95,0.00,,,0.00,meteohub,2013-03-12 01:29:00,
2013-03-11 21:34:00,44.4,43.2,30.20,SE,135,1.0,6.0,95,0.00,,,0.00,meteohub,2013-03-12 01:34:00,
2013-03-11 21:39:00,44.4,43.2,30.20,SE,135,1.0,6.0,95,0.00,,,0.00,meteohub,2013-03-12 01:39:00,
2013-03-11 21:44:00,44.4,43.2,30.20,SSE,150,0.0,6.0,95,0.00,,,0.00,meteohub,2013-03-12 01:44:00,
2013-03-11 21:49:00,44.2,43.0,30.20,ESE,122,4.0,8.0,95,0.00,,,0.00,meteohub,2013-03-12 01:49:00,
2013-03-11 21:54:00,44.2,43.0,30.20,South,191,1.0,8.0,95,0.00,,,0.00,meteohub,2013-03-12 01:54:00,
2013-03-11 21:59:00,44.2,43.0,30.19,SSW,205,1.0,8.0,95,0.00,,,0.00,meteohub,2013-03-12 01:59:00,
2013-03-11 22:05:00,44.1,42.8,30.20,SE,127,0.0,6.0,95,0.00,,,0.00,meteohub,2013-03-12 02:05:00,
2013-03-11 22:10:00,44.1,42.8,30.20,SE,139,2.0,6.0,95,0.00,,,0.00,meteohub,2013-03-12 02:10:00,
2013-03-11 22:15:00,43.9,42.8,30.19,SE,141,1.0,5.0,96,0.00,,,0.00,meteohub,2013-03-12 02:15:00,
2013-03-11 22:20:00,43.7,42.6,30.20,ESE,117,4.0,5.0,96,0.00,,,0.00,meteohub,2013-03-12 02:20:00,
2013-03-11 22:25:00,43.7,42.6,30.20,SSE,161,1.0,6.0,96,0.00,,,0.00,meteohub,2013-03-12 02:25:00,
2013-03-11 22:30:00,43.5,42.4,30.20,SSE,149,3.0,6.0,96,0.00,,,0.00,meteohub,2013-03-12 02:30:00,
2013-03-11 22:35:00,43.9,42.8,30.20,SSE,153,2.0,6.0,96,0.00,,,0.00,meteohub,2013-03-12 02:35:00,
2013-03-11 22:40:00,44.1,43.0,30.20,South,183,5.0,6.0,96,0.00,,,0.00,meteohub,2013-03-12 02:40:00,
2013-03-11 22:45:00,44.4,43.3,30.20,SSE,168,3.0,6.0,96,0.00,,,0.00,meteohub,2013-03-12 02:45:00,
2013-03-11 22:50:00,45.0,44.2,30.20,SE,132,5.0,8.0,97,0.00,,,0.00,meteohub,2013-03-12 02:50:00,
2013-03-11 22:55:00,45.0,43.9,30.20,SW,215,6.0,10.0,96,0.00,,,0.00,meteohub,2013-03-12 02:55:00,
2013-03-11 23:00:00,45.3,44.2,30.20,SSW,194,2.0,10.0,96,0.00,,,0.00,meteohub,2013-03-12 03:00:00,
2013-03-11 23:05:00,45.5,44.4,30.20,SSE,159,6.0,10.0,96,0.00,,,0.00,meteohub,2013-03-12 03:05:00,
2013-03-11 23:10:00,45.7,44.6,30.19,South,184,4.0,10.0,96,0.00,,,0.00,meteohub,2013-03-12 03:10:00,
2013-03-11 23:15:00,45.7,44.6,30.19,SSE,156,4.0,10.0,96,0.00,,,0.00,meteohub,2013-03-12 03:15:00,
2013-03-11 23:20:00,45.9,44.8,30.19,SSE,156,2.0,10.0,96,0.00,,,0.00,meteohub,2013-03-12 03:20:00,
2013-03-11 23:25:00,45.9,44.8,30.18,SSE,160,5.0,8.0,96,0.00,,,0.00,meteohub,2013-03-12 03:25:00,
2013-03-11 23:30:00,45.9,44.8,30.18,SE,141,3.0,8.0,96,0.00,,,0.00,meteohub,2013-03-12 03:30:00,
2013-03-11 23:35:00,45.9,44.8,30.18,South,188,4.0,9.0,96,0.00,,,0.00,meteohub,2013-03-12 03:35:00,
2013-03-11 23:40:00,46.0,45.0,30.18,ESE,110,4.0,9.0,96,0.00,,,0.00,meteohub,2013-03-12 03:40:00,
2013-03-11 23:45:00,45.9,44.8,30.17,SSE,147,4.0,9.0,96,0.00,,,0.00,meteohub,2013-03-12 03:45:00,
2013-03-11 23:50:00,45.9,44.8,30.17,SSE,155,4.0,8.0,96,0.00,,,0.00,meteohub,2013-03-12 03:50:00,
2013-03-11 23:55:00,45.7,44.6,30.17,SSW,208,3.0,8.0,96,0.00,,,0.00,meteohub,2013-03-12 03:55:00,